Weather History for Louisburg, NC

Change the Weather History Date:

Monday, January 20, 2014

  Actual Average (KRDU) Record (KRDU)
Temperature  
Mean Temperature 52 °F 41 °F  
Max Temperature 66 °F 51 °F 74 °F (1951)
Min Temperature 37 °F 31 °F -3 °F (1985)
Degree Days  
Heating Degree Days 14 24  
Month to date heating degree days 486  
Since 1 July heating degree days 1737  
Cooling Degree Days 0 0  
Month to date cooling degree days 0  
Year to date cooling degree days 0  
Growing Degree Days 2 (Base 50)    
Moisture  
Dew Point 26 °F    
Average Humidity 44    
Maximum Humidity 70    
Minimum Humidity 17    
Precipitation  
Precipitation 0.00 in 0.12 in 1.15 in (1889)
Month to date precipitation 2.27  
Year to date precipitation 2.27  
Snow  
Snow 0.00 in 0.10 in 3.90 in (1918)
Month to date snowfall 1.8  
Since 1 July snowfall 2.5  
Snow Depth -    
Sea Level Pressure  
Sea Level Pressure 29.85 in    
Wind  
Wind Speed 4 mph (SW)    
Max Wind Speed 10 mph    
Max Gust Speed 18 mph    
Visibility 10 miles    
Events      
T = Trace of Precipitation, MM = Missing Value Source: NWS Daily Summary

Daily Weather History Graph

Daily Weather History Graph

Search for Another Location

Airport:

Trip Planner

Search our weather history database for the weather conditions in past years. The results will help you decide how hot, cold, wet, or windy it might be!

Date:

Astronomy

Jan. 20, 2014 Rise Set
Actual Time 7:21 AM EST 5:27 PM EST
Civil Twilight 6:53 AM EST 5:55 PM EST
Nautical Twilight 6:22 AM EST 6:26 PM EST
Astronomical Twilight 5:51 AM EST 6:57 PM EST
Moon 9:50 PM EST (1/20) 9:29 AM EST (1/20)
Length of Visible Light 11h 01m
Length of Day
10h 06m
Waning Gibbous, 83% of the Moon is Illuminated
Jan 20
Waning Gibbous
Jan 24
Last Quarter
Jan 30
New
Feb 6
First Quarter
Feb 14
Full

Hourly Weather History & Observations

Time (EST) Temp. Windchill Dew Point Humidity Pressure Visibility Wind Dir Wind Speed Gust Speed Precip Events Conditions
12:15 AM 39.2 °F 37.0 °F 28.4 °F 65% 29.91 in 10.0 mi SW 3.5 mph - N/A   Clear
12:35 AM 37.4 °F 33.8 °F 28.4 °F 70% 29.91 in 10.0 mi SSW 4.6 mph - N/A   Clear
12:55 AM 41.0 °F 38.0 °F 26.6 °F 57% 29.90 in 10.0 mi SSW 4.6 mph - N/A   Clear
1:15 AM 41.0 °F 38.0 °F 28.4 °F 61% 29.89 in 10.0 mi SSW 4.6 mph - N/A   Clear
1:35 AM 37.4 °F 34.9 °F 28.4 °F 70% 29.89 in 10.0 mi SSW 3.5 mph - N/A   Clear
1:55 AM 41.0 °F 38.0 °F 28.4 °F 61% 29.88 in 10.0 mi SSW 4.6 mph - N/A   Clear
2:15 AM 41.0 °F 38.0 °F 28.4 °F 61% 29.88 in 10.0 mi SSW 4.6 mph - N/A   Clear
2:35 AM 41.0 °F 38.0 °F 28.4 °F 61% 29.88 in 10.0 mi SW 4.6 mph - N/A   Clear
2:55 AM 42.8 °F 38.6 °F 28.4 °F 57% 29.87 in 10.0 mi SSW 6.9 mph - N/A   Clear
3:15 AM 42.8 °F 38.6 °F 28.4 °F 57% 29.88 in 10.0 mi SW 6.9 mph - N/A   Clear
3:35 AM 42.8 °F 38.6 °F 28.4 °F 57% 29.87 in 10.0 mi SSW 6.9 mph - N/A   Clear
3:55 AM 42.8 °F 41.1 °F 28.4 °F 57% 29.88 in 10.0 mi SW 3.5 mph - N/A   Clear
4:15 AM 41.0 °F 38.0 °F 28.4 °F 61% 29.88 in 10.0 mi SSW 4.6 mph - N/A   Clear
4:35 AM 41.0 °F 39.0 °F 28.4 °F 61% 29.87 in 10.0 mi SSW 3.5 mph - N/A   Clear
4:55 AM 39.2 °F 37.0 °F 28.4 °F 65% 29.87 in 10.0 mi SSW 3.5 mph - N/A   Clear
5:15 AM 39.2 °F 37.0 °F 28.4 °F 65% 29.87 in 10.0 mi SSW 3.5 mph - N/A   Clear
5:35 AM 39.2 °F - 28.4 °F 65% 29.87 in 10.0 mi Calm Calm - N/A   Clear
5:55 AM 39.2 °F 37.0 °F 28.4 °F 65% 29.87 in 10.0 mi SW 3.5 mph - N/A   Clear
6:15 AM 39.2 °F - 28.4 °F 65% 29.87 in 10.0 mi Calm Calm - N/A   Clear
6:35 AM 37.4 °F - 28.4 °F 70% 29.87 in 10.0 mi Calm Calm - N/A   Clear
6:55 AM 37.4 °F 33.8 °F 28.4 °F 70% 29.87 in 10.0 mi SSW 4.6 mph - N/A   Clear
7:15 AM 39.2 °F 37.0 °F 28.4 °F 65% 29.87 in 10.0 mi SW 3.5 mph - N/A   Clear
7:35 AM 39.2 °F 37.0 °F 28.4 °F 65% 29.88 in 10.0 mi SW 3.5 mph - N/A   Clear
7:55 AM 39.2 °F 35.0 °F 28.4 °F 65% 29.87 in 10.0 mi South 5.8 mph - N/A   Clear
8:15 AM 41.0 °F 39.0 °F 28.4 °F 61% 29.87 in 10.0 mi SSW 3.5 mph - N/A   Clear
8:35 AM 42.8 °F 39.3 °F 28.4 °F 57% 29.87 in 10.0 mi SW 5.8 mph - N/A   Clear
8:55 AM 42.8 °F 40.1 °F 28.4 °F 57% 29.87 in 10.0 mi WSW 4.6 mph - N/A   Clear
9:15 AM 44.6 °F 42.2 °F 28.4 °F 53% 29.88 in 10.0 mi SW 4.6 mph - N/A   Clear
9:35 AM 46.4 °F 44.3 °F 28.4 °F 50% 29.88 in 10.0 mi SW 4.6 mph - N/A   Clear
9:55 AM 48.2 °F - 28.4 °F 46% 29.88 in 10.0 mi SW 4.6 mph - N/A   Clear
10:15 AM 50.0 °F - 28.4 °F 43% 29.87 in 10.0 mi SSW 3.5 mph - N/A   Clear
10:35 AM 51.8 °F - 26.6 °F 38% 29.87 in 10.0 mi SW 6.9 mph - N/A   Clear
10:55 AM 53.6 °F - 26.6 °F 35% 29.86 in 10.0 mi SSW 5.8 mph - N/A   Clear
11:15 AM 55.4 °F - 26.6 °F 33% 29.85 in 10.0 mi SSW 5.8 mph - N/A   Clear
11:35 AM 57.2 °F - 26.6 °F 31% 29.84 in 10.0 mi SW 4.6 mph - N/A   Clear
11:55 AM 59.0 °F - 21.2 °F 23% 29.83 in 10.0 mi SW 5.8 mph - N/A   Clear
12:15 PM 60.8 °F - 21.2 °F 22% 29.82 in 10.0 mi SSW 6.9 mph - N/A   Clear
12:35 PM 60.8 °F - 19.4 °F 20% 29.81 in 10.0 mi SW 5.8 mph - N/A   Clear
12:55 PM 62.6 °F - 19.4 °F 19% 29.80 in 10.0 mi WSW 6.9 mph - N/A   Clear
1:15 PM 64.4 °F - 19.4 °F 18% 29.79 in 10.0 mi SW 6.9 mph - N/A   Clear
1:35 PM 64.4 °F - 19.4 °F 18% 29.78 in 10.0 mi SSW 10.4 mph - N/A   Clear
1:55 PM 64.4 °F - 21.2 °F 19% 29.77 in 10.0 mi SW 9.2 mph - N/A   Clear
2:15 PM 64.4 °F - 19.4 °F 18% 29.77 in 10.0 mi SW 4.6 mph - N/A   Clear
2:35 PM 64.4 °F - 19.4 °F 18% 29.77 in 10.0 mi SW 4.6 mph 18.4 mph N/A   Clear
2:55 PM 64.4 °F - 19.4 °F 18% 29.78 in 10.0 mi SW 9.2 mph - N/A   Clear
3:15 PM 66.2 °F - 19.4 °F 17% 29.77 in 10.0 mi SW 5.8 mph - N/A   Clear
3:35 PM 64.4 °F - 19.4 °F 18% 29.78 in 10.0 mi SW 9.2 mph - N/A   Clear
3:55 PM 64.4 °F - 19.4 °F 18% 29.78 in 10.0 mi SW 8.1 mph - N/A   Clear
4:15 PM 64.4 °F - 21.2 °F 19% 29.79 in 10.0 mi SW 3.5 mph - N/A   Clear
4:35 PM 64.4 °F - 21.2 °F 19% 29.79 in 10.0 mi SSW 3.5 mph - N/A   Clear
4:55 PM 64.4 °F - 21.2 °F 19% 29.79 in 10.0 mi SW 3.5 mph - N/A   Clear
5:15 PM 62.6 °F - 23.0 °F 22% 29.80 in 10.0 mi Calm Calm - N/A   Clear
5:35 PM 60.8 °F - 23.0 °F 23% 29.81 in 10.0 mi Calm Calm - N/A   Clear
5:55 PM 55.4 °F - 26.6 °F 33% 29.82 in 10.0 mi Calm Calm - N/A   Clear
6:15 PM 55.4 °F - 24.8 °F 31% 29.82 in 10.0 mi Calm Calm - N/A   Clear
6:35 PM 55.4 °F - 24.8 °F 31% 29.82 in 10.0 mi SSW 4.6 mph - N/A   Clear
6:55 PM 53.6 °F - 26.6 °F 35% 29.83 in 10.0 mi SSW 4.6 mph - N/A   Clear
7:15 PM 53.6 °F - 26.6 °F 35% 29.83 in 10.0 mi SSW 3.5 mph - N/A   Clear
7:35 PM 53.6 °F - 26.6 °F 35% 29.84 in 10.0 mi SSW 4.6 mph - N/A   Clear
7:55 PM 55.4 °F - 26.6 °F 33% 29.84 in 10.0 mi SSW 4.6 mph - N/A   Clear
8:15 PM 53.6 °F - 28.4 °F 38% 29.84 in 10.0 mi SSW 4.6 mph - N/A   Clear
8:35 PM 53.6 °F - 28.4 °F 38% 29.84 in 10.0 mi SSW 4.6 mph - N/A   Clear
8:55 PM 53.6 °F - 28.4 °F 38% 29.85 in 10.0 mi SSW 4.6 mph - N/A   Clear
9:15 PM 53.6 °F - 28.4 °F 38% 29.85 in 10.0 mi SSW 4.6 mph - N/A   Clear
9:35 PM 53.6 °F - 28.4 °F 38% 29.85 in 10.0 mi SSW 3.5 mph - N/A   Clear
9:55 PM 51.8 °F - 28.4 °F 41% 29.86 in 10.0 mi SSW 3.5 mph - N/A   Clear
10:15 PM 48.2 °F - 28.4 °F 46% 29.87 in 10.0 mi NNW 5.8 mph - N/A   Clear
10:35 PM 46.4 °F - 28.4 °F 50% 29.86 in 10.0 mi Calm Calm - N/A   Clear
10:55 PM 42.8 °F - 28.4 °F 57% 29.86 in 10.0 mi Calm Calm - N/A   Clear
11:15 PM 42.8 °F 40.1 °F 30.2 °F 61% 29.85 in 10.0 mi South 4.6 mph - N/A   Clear
11:35 PM 42.8 °F 41.1 °F 28.4 °F 57% 29.84 in 10.0 mi SSW 3.5 mph - N/A   Clear
11:55 PM 42.8 °F - 28.4 °F 57% 29.83 in 10.0 mi Calm Calm - N/A   Clear